Time,TemperatureF,DewpointF,PressureIn,WindDirection,WindDirectionDegrees,WindSpeedMPH,WindSpeedGustMPH,Humidity,HourlyPrecipIn,Conditions,Clouds,dailyrainin,SoftwareType,DateUTC
2013-08-01 00:05:00,80.5,74.0,29.95,NE,43,0.0,0.0,81,0.00,,,0.00,weatherlink.com 1.10,2013-08-01 05:05:00,
2013-08-01 00:20:00,80.1,74.0,29.95,NE,43,0.0,0.0,82,0.00,,,0.00,weatherlink.com 1.10,2013-08-01 05:20:00,
2013-08-01 00:35:00,79.5,74.0,29.95,NE,43,0.0,0.0,83,0.00,,,0.00,weatherlink.com 1.10,2013-08-01 05:35:00,
2013-08-01 00:50:00,79.3,74.0,29.96,NE,43,0.0,1.0,84,0.00,,,0.00,weatherlink.com 1.10,2013-08-01 05:50:00,
2013-08-01 01:05:00,79.2,74.0,29.96,NE,42,0.0,1.0,84,0.00,,,0.00,weatherlink.com 1.10,2013-08-01 06:05:00,
2013-08-01 01:20:00,79.2,74.0,29.96,NE,42,0.0,1.0,84,0.00,,,0.00,weatherlink.com 1.10,2013-08-01 06:20:00,
2013-08-01 01:35:00,79.3,75.0,29.95,ENE,61,0.0,1.0,85,0.00,,,0.00,weatherlink.com 1.10,2013-08-01 06:35:00,
2013-08-01 01:50:00,78.9,74.0,29.95,ENE,60,0.0,1.0,85,0.00,,,0.00,weatherlink.com 1.10,2013-08-01 06:50:00,
2013-08-01 02:05:00,78.8,74.0,29.95,ENE,65,0.0,1.0,86,0.00,,,0.00,weatherlink.com 1.10,2013-08-01 07:05:00,
2013-08-01 02:20:00,78.6,75.0,29.96,ENE,65,0.0,0.0,87,0.00,,,0.00,weatherlink.com 1.10,2013-08-01 07:20:00,
2013-08-01 02:35:00,78.5,74.0,29.96,ENE,65,0.0,0.0,87,0.00,,,0.00,weatherlink.com 1.10,2013-08-01 07:35:00,
2013-08-01 02:50:00,78.4,74.0,29.95,ENE,65,0.0,0.0,87,0.00,,,0.00,weatherlink.com 1.10,2013-08-01 07:50:00,
2013-08-01 03:05:00,78.0,74.0,29.95,ENE,65,0.0,1.0,87,0.00,,,0.00,weatherlink.com 1.10,2013-08-01 08:05:00,
2013-08-01 03:20:00,78.0,74.0,29.95,NE,55,0.0,1.0,87,0.00,,,0.00,weatherlink.com 1.10,2013-08-01 08:20:00,
2013-08-01 03:35:00,77.8,74.0,29.94,NE,55,0.0,1.0,88,0.00,,,0.00,weatherlink.com 1.10,2013-08-01 08:35:00,
2013-08-01 04:05:00,77.2,74.0,29.94,NE,55,0.0,0.0,89,0.00,,,0.00,weatherlink.com 1.10,2013-08-01 09:05:00,
2013-08-01 04:21:00,76.8,74.0,29.94,NE,55,0.0,0.0,90,0.00,,,0.00,weatherlink.com 1.10,2013-08-01 09:21:00,
2013-08-01 04:51:00,75.7,73.0,29.94,NE,55,0.0,0.0,91,0.00,,,0.00,weatherlink.com 1.10,2013-08-01 09:51:00,
2013-08-01 05:06:00,75.3,73.0,29.94,NE,55,0.0,1.0,92,0.00,,,0.00,weatherlink.com 1.10,2013-08-01 10:06:00,
2013-08-01 05:21:00,75.1,73.0,29.95,NE,55,0.0,0.0,93,0.00,,,0.00,weatherlink.com 1.10,2013-08-01 10:21:00,
2013-08-01 06:06:00,75.1,73.0,29.95,NE,54,0.0,0.0,93,0.00,,,0.00,weatherlink.com 1.10,2013-08-01 11:06:00,
2013-08-01 06:21:00,75.1,73.0,29.95,NE,46,0.0,2.0,93,0.00,,,0.00,weatherlink.com 1.10,2013-08-01 11:21:00,
2013-08-01 06:36:00,75.4,73.0,29.96,NE,46,0.0,1.0,92,0.00,,,0.00,weatherlink.com 1.10,2013-08-01 11:36:00,
2013-08-01 07:06:00,75.2,73.0,29.97,NE,42,0.0,2.0,93,0.00,,,0.00,weatherlink.com 1.10,2013-08-01 12:06:00,
2013-08-01 07:51:00,75.9,74.0,29.97,NNE,24,3.0,6.0,92,0.00,,,0.00,weatherlink.com 1.10,2013-08-01 12:51:00,
2013-08-01 08:06:00,76.5,74.0,29.98,NNE,32,0.0,7.0,91,0.00,,,0.00,weatherlink.com 1.10,2013-08-01 13:06:00,
2013-08-01 09:21:00,81.9,76.0,29.98,NE,46,2.0,9.0,81,0.00,,,0.00,weatherlink.com 1.10,2013-08-01 14:21:00,
2013-08-01 09:51:00,83.6,76.0,29.98,ENE,61,0.0,10.0,77,0.00,,,0.00,weatherlink.com 1.10,2013-08-01 14:51:00,
2013-08-01 10:06:00,84.4,76.0,29.98,East,83,2.0,8.0,75,0.00,,,0.00,weatherlink.com 1.10,2013-08-01 15:06:00,
2013-08-01 10:51:00,85.9,76.0,29.98,ESE,107,8.0,8.0,72,0.00,,,0.00,weatherlink.com 1.10,2013-08-01 15:51:00,
2013-08-01 11:51:00,87.4,74.0,29.97,NE,40,0.0,8.0,65,0.00,,,0.00,weatherlink.com 1.10,2013-08-01 16:51:00,
2013-08-01 12:06:00,88.0,74.0,29.97,NE,56,3.0,10.0,63,0.00,,,0.00,weatherlink.com 1.10,2013-08-01 17:06:00,
2013-08-01 12:21:00,88.0,74.0,29.97,NE,42,5.0,11.0,64,0.00,,,0.00,weatherlink.com 1.10,2013-08-01 17:21:00,
2013-08-01 12:37:00,88.8,75.0,29.96,ESE,103,0.0,9.0,63,0.00,,,0.00,weatherlink.com 1.10,2013-08-01 17:37:00,
2013-08-01 12:52:00,89.2,74.0,29.96,East,82,5.0,10.0,62,0.00,,,0.00,weatherlink.com 1.10,2013-08-01 17:52:00,
2013-08-01 13:07:00,89.2,74.0,29.95,ESE,111,3.0,8.0,61,0.00,,,0.00,weatherlink.com 1.10,2013-08-01 18:07:00,
2013-08-01 13:22:00,90.0,73.0,29.95,SE,146,7.0,9.0,58,0.00,,,0.00,weatherlink.com 1.10,2013-08-01 18:22:00,
2013-08-01 14:07:00,90.5,73.0,29.94,SE,124,5.0,10.0,57,0.00,,,0.00,weatherlink.com 1.10,2013-08-01 19:07:00,
2013-08-01 14:37:00,91.6,73.0,29.93,ENE,63,3.0,9.0,55,0.00,,,0.00,weatherlink.com 1.10,2013-08-01 19:37:00,
2013-08-01 14:52:00,91.8,74.0,29.93,SE,126,10.0,10.0,57,0.00,,,0.00,weatherlink.com 1.10,2013-08-01 19:52:00,
2013-08-01 15:22:00,92.1,74.0,29.92,SE,138,6.0,11.0,55,0.00,,,0.00,weatherlink.com 1.10,2013-08-01 20:22:00,
2013-08-01 15:37:00,92.3,73.0,29.92,SE,128,7.0,8.0,53,0.00,,,0.00,weatherlink.com 1.10,2013-08-01 20:37:00,
2013-08-01 15:52:00,92.3,72.0,29.91,SE,130,10.0,13.0,51,0.00,,,0.00,weatherlink.com 1.10,2013-08-01 20:52:00,
2013-08-01 16:07:00,93.0,73.0,29.90,East,84,8.0,12.0,52,0.00,,,0.00,weatherlink.com 1.10,2013-08-01 21:07:00,
2013-08-01 16:22:00,92.6,74.0,29.90,SE,130,8.0,12.0,54,0.00,,,0.00,weatherlink.com 1.10,2013-08-01 21:22:00,
2013-08-01 16:37:00,92.3,73.0,29.89,ESE,117,5.0,11.0,54,0.00,,,0.00,weatherlink.com 1.10,2013-08-01 21:37:00,
2013-08-01 16:52:00,92.2,74.0,29.89,ESE,119,2.0,11.0,55,0.00,,,0.00,weatherlink.com 1.10,2013-08-01 21:52:00,
2013-08-01 17:07:00,92.3,73.0,29.89,ENE,76,4.0,13.0,53,0.00,,,0.00,weatherlink.com 1.10,2013-08-01 22:07:00,
2013-08-01 17:22:00,92.4,72.0,29.89,ESE,106,8.0,13.0,52,0.00,,,0.00,weatherlink.com 1.10,2013-08-01 22:22:00,
2013-08-01 17:37:00,92.2,74.0,29.88,ESE,116,4.0,9.0,55,0.00,,,0.00,weatherlink.com 1.10,2013-08-01 22:37:00,
2013-08-01 17:52:00,92.0,74.0,29.88,ESE,105,0.0,11.0,55,0.00,,,0.00,weatherlink.com 1.10,2013-08-01 22:52:00,
2013-08-01 18:07:00,91.9,74.0,29.87,ESE,123,4.0,11.0,56,0.00,,,0.00,weatherlink.com 1.10,2013-08-01 23:07:00,
2013-08-01 18:22:00,91.6,74.0,29.87,ENE,67,3.0,10.0,56,0.00,,,0.00,weatherlink.com 1.10,2013-08-01 23:22:00,
2013-08-01 18:37:00,91.4,74.0,29.86,East,101,6.0,10.0,57,0.00,,,0.00,weatherlink.com 1.10,2013-08-01 23:37:00,
2013-08-01 18:52:00,90.9,75.0,29.86,East,95,2.0,7.0,59,0.00,,,0.00,weatherlink.com 1.10,2013-08-01 23:52:00,
2013-08-01 19:07:00,90.4,75.0,29.85,ESE,117,7.0,9.0,60,0.00,,,0.00,weatherlink.com 1.10,2013-08-02 00:07:00,
2013-08-01 19:22:00,89.5,75.0,29.86,ENE,77,4.0,8.0,62,0.00,,,0.00,weatherlink.com 1.10,2013-08-02 00:22:00,
2013-08-01 19:37:00,88.6,75.0,29.85,East,90,0.0,4.0,64,0.00,,,0.00,weatherlink.com 1.10,2013-08-02 00:37:00,
2013-08-01 19:52:00,87.5,75.0,29.86,ESE,102,0.0,1.0,66,0.00,,,0.00,weatherlink.com 1.10,2013-08-02 00:52:00,
2013-08-01 20:07:00,86.7,75.0,29.87,ESE,102,0.0,0.0,68,0.00,,,0.00,weatherlink.com 1.10,2013-08-02 01:07:00,
2013-08-01 20:22:00,86.0,75.0,29.87,East,101,0.0,0.0,69,0.00,,,0.00,weatherlink.com 1.10,2013-08-02 01:22:00,
2013-08-01 20:37:00,85.2,75.0,29.87,East,101,0.0,1.0,71,0.00,,,0.00,weatherlink.com 1.10,2013-08-02 01:37:00,
2013-08-01 21:07:00,83.8,74.0,29.87,ESE,117,0.0,1.0,72,0.00,,,0.00,weatherlink.com 1.10,2013-08-02 02:07:00,
2013-08-01 21:22:00,83.3,74.0,29.87,ESE,117,0.0,1.0,73,0.00,,,0.00,weatherlink.com 1.10,2013-08-02 02:22:00,
2013-08-01 21:52:00,82.4,73.0,29.87,ESE,115,0.0,1.0,74,0.00,,,0.00,weatherlink.com 1.10,2013-08-02 02:52:00,
2013-08-01 22:22:00,82.0,73.0,29.87,ESE,115,0.0,1.0,74,0.00,,,0.00,weatherlink.com 1.10,2013-08-02 03:22:00,
2013-08-01 22:52:00,81.1,73.0,29.87,ESE,115,0.0,1.0,75,0.00,,,0.00,weatherlink.com 1.10,2013-08-02 03:52:00,
2013-08-01 23:07:00,80.9,73.0,29.87,ESE,115,0.0,1.0,76,0.00,,,0.00,weatherlink.com 1.10,2013-08-02 04:07:00,
2013-08-01 23:22:00,80.5,73.0,29.86,ESE,115,0.0,1.0,77,0.00,,,0.00,weatherlink.com 1.10,2013-08-02 04:22:00,
2013-08-01 23:37:00,80.3,73.0,29.86,ESE,115,1.0,2.0,78,0.00,,,0.00,weatherlink.com 1.10,2013-08-02 04:37:00,
2013-08-01 23:52:00,80.0,73.0,29.86,ESE,115,0.0,1.0,79,0.00,,,0.00,weatherlink.com 1.10,2013-08-02 04:52:00,